Location: Muenchen
(48.1800°N, 11.5800°E)
Time: 14:30:49
(UTC+02:00)

ISS - All Passes

Search period start: 25 April 2015 00:00
Search period end: 05 May 2015 00:00
Orbit: 395 x 402 km, 51.6° (Epoch: 25 April)

Date Brightness Start Highest point End Pass type
(mag) Time Alt. Az. Time Alt. Az. Time Alt. Az.
25 Apr - 13:15:02 10° SW 13:18:03 36° SE 13:21:06 10° ENE daylight
25 Apr - 14:51:06 10° W 14:54:20 59° NNW 14:57:35 10° ENE daylight
25 Apr - 16:27:51 10° WNW 16:31:01 44° N 16:34:10 10° E daylight
25 Apr - 18:04:17 10° WNW 18:07:34 81° SSW 18:10:50 10° ESE daylight
25 Apr - 19:41:22 10° W 19:43:33 16° SW 19:45:39 10° S daylight
26 Apr - 12:21:37 10° SSW 12:24:10 22° SE 12:26:46 10° E daylight
26 Apr - 13:56:59 10° WSW 14:00:16 82° NNW 14:03:32 10° ENE daylight
26 Apr - 15:33:43 10° WNW 15:36:52 43° N 15:40:00 10° ENE daylight
26 Apr - 17:10:14 10° WNW 17:13:30 69° NNE 17:16:46 10° ESE daylight
26 Apr - 18:46:50 10° W 18:49:41 27° SW 18:52:31 10° SSE daylight
27 Apr - 11:28:53 10° SSE 11:30:20 13° SE 11:31:54 10° ESE daylight
27 Apr - 13:03:00 10° SW 13:06:14 66° SSE 13:09:29 10° ENE daylight
27 Apr - 14:39:32 10° W 14:42:42 46° N 14:45:53 10° ENE daylight
27 Apr - 16:16:11 10° WNW 16:19:24 52° NNE 16:22:37 10° E daylight
27 Apr - 17:52:37 10° WNW 17:55:46 46° SSW 17:58:54 10° SE daylight
28 Apr - 12:09:12 10° SW 12:12:15 39° SSE 12:15:21 10° ENE daylight
28 Apr - 13:45:21 10° W 13:48:34 57° NNW 13:51:49 10° ENE daylight
28 Apr - 15:22:06 10° WNW 15:25:16 45° N 15:28:25 10° E daylight
28 Apr - 16:58:31 10° WNW 17:01:47 76° SSW 17:05:03 10° ESE daylight
28 Apr - 18:35:44 10° W 18:37:44 15° SW 18:39:40 10° S daylight
29 Apr - 11:15:42 10° SSW 11:18:22 23° SE 11:21:03 10° E daylight
29 Apr - 12:51:12 10° WSW 12:54:28 77° NNW 12:57:46 10° ENE daylight
29 Apr - 14:27:57 10° WNW 14:31:06 43° N 14:34:15 10° ENE daylight
29 Apr - 16:04:28 10° WNW 16:07:44 73° NNE 16:11:00 10° ESE daylight
29 Apr - 17:41:07 10° W 17:43:53 25° SW 17:46:38 10° SSE daylight
30 Apr - 10:22:48 10° S 10:24:32 14° SE 10:26:20 10° ESE daylight
30 Apr - 11:57:12 10° WSW 12:00:26 71° SSE 12:03:42 10° ENE daylight
30 Apr - 13:33:46 10° W 13:36:56 45° N 13:40:07 10° ENE daylight
30 Apr - 15:10:24 10° WNW 15:13:38 54° NNE 15:16:51 10° E daylight
30 Apr - 16:46:51 10° WNW 16:49:59 42° SSW 16:53:05 10° SE daylight
01 May - 11:03:21 10° SW 11:06:27 42° SSE 11:09:35 10° ENE daylight
01 May - 12:39:35 10° W 12:42:48 54° NNW 12:46:02 10° ENE daylight
01 May - 14:16:19 10° WNW 14:19:29 46° N 14:22:40 10° E daylight
01 May - 15:52:44 10° WNW 15:56:00 71° SSW 15:59:15 10° ESE daylight
01 May - 17:30:06 10° WSW 17:31:54 14° SW 17:33:38 10° S daylight
02 May - 10:09:48 10° SSW 10:12:33 25° SE 10:15:19 10° E daylight
02 May - 11:45:26 10° WSW 11:48:41 73° NNW 11:51:58 10° ENE daylight
02 May - 13:22:11 10° WNW 13:25:20 43° N 13:28:28 10° ENE daylight
02 May - 14:58:40 10° WNW 15:01:57 77° NNE 15:05:13 10° ESE daylight
02 May - 16:35:23 10° W 16:38:04 23° SW 16:40:43 10° SSE daylight
03 May - 09:16:45 10° S 09:18:41 15° SE 09:20:42 10° E daylight
03 May - 10:51:23 10° WSW 10:54:38 76° SSE 10:57:55 10° ENE daylight
03 May - 12:28:00 10° W 12:31:10 45° N 12:34:20 10° ENE daylight
03 May - 14:04:37 10° WNW 14:07:51 57° NNE 14:11:05 10° E daylight
03 May - 15:41:04 10° WNW 15:44:10 39° SSW 15:47:13 10° SE daylight
04 May - 09:57:31 10° SW 10:00:39 46° SSE 10:03:48 10° ENE daylight
04 May - 11:33:49 10° W 11:37:01 52° NNW 11:40:14 10° ENE daylight
04 May - 13:10:32 10° WNW 13:13:42 46° N 13:16:53 10° E daylight
04 May - 14:46:56 10° WNW 14:50:12 65° SSW 14:53:26 10° SE daylight
04 May - 16:24:30 10° WSW 16:26:04 13° SW 16:27:32 10° SSW daylight
